Private Wetterstation Wechselburg
Wetterdaten: Donnerstag, 12.08.2021
Datum Zeit Temp. +2m Bodentemp. Temp.+5cm Temp. Wind Windchill X Diff Temp. Feuchte +2m Feuchte +5cm Luftdruck Regen Wind Richtung Richtung Sonnenschein Taupunkt Windchill Windben
12.08.2021 00:00 13,5 C 19,1 C 13,3 C 13,0 C 11,9 C 0,0 C 83 % 88 % 1020,8 hPa 0,0 l/m 0,0 km/h (0 Bft) W 270 0 min 10,7 C 11,9 C 0,0 km/h (0 Bft)
12.08.2021 00:05 13,5 C 19,1 C 13,2 C 12,9 C 11,8 C 0,0 C 83 % 89 % 1020,8 hPa 0,0 l/m 0,0 km/h (0 Bft) W 270 0 min 10,7 C 11,8 C 0,0 km/h (0 Bft)
12.08.2021 00:10 13,5 C 19,1 C 13,2 C 12,9 C 11,8 C 0,0 C 83 % 89 % 1020,8 hPa 0,0 l/m 0,0 km/h (0 Bft) W 270 0 min 10,7 C 11,8 C 0,0 km/h (0 Bft)
12.08.2021 00:15 13,3 C 19,1 C 13,1 C 12,8 C 11,7 C 0,0 C 84 % 89 % 1020,8 hPa 0,0 l/m 0,0 km/h (0 Bft) W 270 0 min 10,7 C 11,7 C 0,0 km/h (0 Bft)
12.08.2021 00:20 13,2 C 19,1 C 13,1 C 12,7 C 11,6 C 0,0 C 84 % 89 % 1020,8 hPa 0,0 l/m 0,0 km/h (0 Bft) W 270 0 min 10,6 C 11,6 C 0,0 km/h (0 Bft)
12.08.2021 00:25 13,1 C 19,1 C 13,0 C 12,6 C 11,6 C 0,0 C 84 % 89 % 1020,8 hPa 0,0 l/m 0,0 km/h (0 Bft) W 270 0 min 10,5 C 11,6 C 0,0 km/h (0 Bft)
12.08.2021 00:30 13,1 C 19,1 C 13,0 C 12,6 C 11,6 C 0,0 C 84 % 89 % 1020,8 hPa 0,0 l/m 0,0 km/h (0 Bft) W 270 0 min 10,5 C 11,6 C 0,0 km/h (0 Bft)
12.08.2021 00:35 13,1 C 19,1 C 12,9 C 12,6 C 11,6 C 0,0 C 84 % 89 % 1020,8 hPa 0,0 l/m 0,0 km/h (0 Bft) W 270 0 min 10,5 C 11,6 C 0,0 km/h (0 Bft)
12.08.2021 00:40 13,0 C 19,1 C 12,9 C 12,5 C 11,5 C 0,0 C 84 % 89 % 1020,8 hPa 0,0 l/m 0,0 km/h (0 Bft) W 270 0 min 10,4 C 11,5 C 0,0 km/h (0 Bft)
12.08.2021 00:45 12,9 C 19,1 C 12,8 C 12,4 C 11,4 C 0,0 C 84 % 90 % 1020,8 hPa 0,0 l/m 0,0 km/h (0 Bft) W 270 0 min 10,3 C 11,4 C 0,0 km/h (0 Bft)
12.08.2021 00:50 12,8 C 19,0 C 12,7 C 12,3 C 11,4 C 0,0 C 85 % 89 % 1020,8 hPa 0,0 l/m 0,0 km/h (0 Bft) W 270 0 min 10,3 C 11,4 C 0,0 km/h (0 Bft)
12.08.2021 00:55 12,9 C 19,0 C 12,7 C 12,4 C 11,4 C 0,0 C 85 % 90 % 1020,9 hPa 0,0 l/m 0,0 km/h (0 Bft) W 270 0 min 10,4 C 11,4 C 0,0 km/h (0 Bft)
12.08.2021 01:00 12,8 C 19,0 C 12,6 C 12,3 C 11,3 C 0,0 C 85 % 90 % 1020,9 hPa 0,0 l/m 0,0 km/h (0 Bft) W 270 0 min 10,3 C 11,3 C 0,0 km/h (0 Bft)
12.08.2021 01:05 12,7 C 19,0 C 12,5 C 12,2 C 11,2 C 0,0 C 85 % 90 % 1020,9 hPa 0,0 l/m 0,0 km/h (0 Bft) W 270 0 min 10,2 C 11,2 C 0,0 km/h (0 Bft)
12.08.2021 01:10 12,6 C 19,0 C 12,5 C 12,1 C 11,2 C 0,0 C 85 % 90 % 1020,9 hPa 0,0 l/m 0,0 km/h (0 Bft) W 270 0 min 10,1 C 11,2 C 0,0 km/h (0 Bft)
12.08.2021 01:15 12,6 C 19,0 C 12,4 C 12,1 C 11,1 C 0,0 C 85 % 90 % 1020,9 hPa 0,0 l/m 0,0 km/h (0 Bft) W 270 0 min 10,1 C 11,1 C 0,0 km/h (0 Bft)
12.08.2021 01:20 12,5 C 19,0 C 12,4 C 12,1 C 11,2 C 0,0 C 85 % 90 % 1020,9 hPa 0,0 l/m 0,0 km/h (0 Bft) W 270 0 min 10,0 C 11,2 C 0,0 km/h (0 Bft)
12.08.2021 01:25 12,4 C 18,9 C 12,3 C 12,0 C 11,1 C 0,0 C 85 % 90 % 1020,9 hPa 0,0 l/m 0,0 km/h (0 Bft) W 270 0 min 9,9 C 11,1 C 0,0 km/h (0 Bft)
12.08.2021 01:30 12,5 C 18,9 C 12,3 C 12,0 C 11,0 C 0,0 C 85 % 90 % 1020,9 hPa 0,0 l/m 0,0 km/h (0 Bft) W 270 0 min 10,0 C 11,0 C 0,0 km/h (0 Bft)
12.08.2021 01:35 12,3 C 18,9 C 12,2 C 11,8 C 10,9 C 0,0 C 85 % 90 % 1020,9 hPa 0,0 l/m 0,0 km/h (0 Bft) W 270 0 min 9,9 C 10,9 C 0,0 km/h (0 Bft)
12.08.2021 01:40 12,3 C 18,9 C 12,1 C 11,8 C 10,9 C 0,0 C 85 % 90 % 1020,9 hPa 0,0 l/m 0,0 km/h (0 Bft) W 270 0 min 9,9 C 10,9 C 0,0 km/h (0 Bft)
12.08.2021 01:45 12,3 C 18,9 C 12,1 C 11,8 C 10,8 C 0,0 C 85 % 90 % 1020,9 hPa 0,0 l/m 0,0 km/h (0 Bft) W 270 0 min 9,9 C 10,8 C 0,0 km/h (0 Bft)
12.08.2021 01:50 12,1 C 18,9 C 12,1 C 11,7 C 10,8 C 0,0 C 86 % 90 % 1020,9 hPa 0,0 l/m 0,0 km/h (0 Bft) W 270 0 min 9,8 C 10,8 C 0,0 km/h (0 Bft)
12.08.2021 01:55 12,1 C 18,9 C 12,1 C 11,7 C 10,8 C 0,0 C 86 % 90 % 1021,3 hPa 0,0 l/m 0,0 km/h (0 Bft) W 270 0 min 9,8 C 10,8 C 0,0 km/h (0 Bft)
12.08.2021 02:00 12,0 C 18,9 C 12,1 C 11,6 C 10,7 C 0,0 C 86 % 90 % 1021,3 hPa 0,0 l/m 0,0 km/h (0 Bft) W 270 0 min 9,7 C 10,7 C 0,0 km/h (0 Bft)
12.08.2021 02:05 12,0 C 18,8 C 11,9 C 11,5 C 10,6 C 0,0 C 86 % 90 % 1021,3 hPa 0,0 l/m 0,0 km/h (0 Bft) W 270 0 min 9,7 C 10,6 C 0,0 km/h (0 Bft)
12.08.2021 02:10 11,9 C 18,8 C 11,9 C 11,4 C 10,5 C 0,0 C 86 % 90 % 1021,3 hPa 0,0 l/m 0,0 km/h (0 Bft) W 270 0 min 9,6 C 10,5 C 0,0 km/h (0 Bft)
12.08.2021 02:15 11,9 C 18,8 C 11,9 C 11,5 C 10,6 C 0,0 C 86 % 90 % 1021,0 hPa 0,0 l/m 0,0 km/h (0 Bft) W 270 0 min 9,6 C 10,6 C 0,0 km/h (0 Bft)
12.08.2021 02:20 11,8 C 18,8 C 11,9 C 11,4 C 10,6 C 0,0 C 86 % 91 % 1021,0 hPa 0,0 l/m 0,0 km/h (0 Bft) W 270 0 min 9,5 C 10,6 C 0,0 km/h (0 Bft)
12.08.2021 02:25 11,9 C 18,8 C 11,9 C 11,5 C 10,7 C 0,0 C 86 % 91 % 1021,0 hPa 0,0 l/m 0,0 km/h (0 Bft) W 270 0 min 9,6 C 10,7 C 0,0 km/h (0 Bft)
12.08.2021 02:30 11,9 C 18,8 C 11,9 C 11,5 C 10,7 C 0,0 C 86 % 91 % 1021,0 hPa 0,0 l/m 0,0 km/h (0 Bft) W 270 0 min 9,6 C 10,7 C 0,0 km/h (0 Bft)
12.08.2021 02:35 11,8 C 18,8 C 11,8 C 11,4 C 10,6 C 0,0 C 86 % 90 % 1021,1 hPa 0,0 l/m 0,0 km/h (0 Bft) W 270 0 min 9,5 C 10,6 C 0,0 km/h (0 Bft)
12.08.2021 02:40 11,7 C 18,7 C 11,7 C 11,3 C 10,5 C 0,0 C 87 % 91 % 1021,1 hPa 0,0 l/m 0,0 km/h (0 Bft) W 270 0 min 9,6 C 10,5 C 0,0 km/h (0 Bft)
12.08.2021 02:45 11,6 C 18,7 C 11,6 C 11,2 C 10,4 C 0,0 C 87 % 90 % 1021,1 hPa 0,0 l/m 0,0 km/h (0 Bft) W 270 0 min 9,5 C 10,4 C 0,0 km/h (0 Bft)
12.08.2021 02:50 11,6 C 18,7 C 11,6 C 11,2 C 10,5 C 0,0 C 87 % 91 % 1021,1 hPa 0,0 l/m 0,0 km/h (0 Bft) W 270 0 min 9,5 C 10,5 C 0,0 km/h (0 Bft)
12.08.2021 02:55 11,6 C 18,7 C 11,6 C 11,3 C 10,6 C 0,0 C 87 % 91 % 1021,1 hPa 0,0 l/m 0,0 km/h (0 Bft) W 270 0 min 9,5 C 10,6 C 0,0 km/h (0 Bft)
12.08.2021 03:00 11,5 C 18,7 C 11,5 C 11,2 C 10,5 C 0,0 C 87 % 91 % 1021,1 hPa 0,0 l/m 0,0 km/h (0 Bft) W 270 0 min 9,4 C 10,5 C 0,0 km/h (0 Bft)
12.08.2021 03:05 11,5 C 18,7 C 11,5 C 11,1 C 10,4 C 0,0 C 87 % 91 % 1021,1 hPa 0,0 l/m 0,0 km/h (0 Bft) W 270 0 min 9,4 C 10,4 C 0,0 km/h (0 Bft)
12.08.2021 03:10 11,4 C 18,7 C 11,5 C 11,1 C 10,4 C 0,0 C 87 % 91 % 1021,1 hPa 0,0 l/m 0,0 km/h (0 Bft) W 270 0 min 9,3 C 10,4 C 0,0 km/h (0 Bft)
12.08.2021 03:15 11,5 C 18,6 C 11,5 C 11,1 C 10,2 C 0,0 C 87 % 91 % 1021,1 hPa 0,0 l/m 0,0 km/h (0 Bft) W 270 0 min 9,4 C 10,2 C 0,0 km/h (0 Bft)
12.08.2021 03:20 11,4 C 18,6 C 11,4 C 11,0 C 10,1 C 0,0 C 87 % 91 % 1021,1 hPa 0,0 l/m 0,0 km/h (0 Bft) W 270 0 min 9,3 C 10,1 C 0,0 km/h (0 Bft)
12.08.2021 03:25 11,3 C 18,6 C 11,3 C 10,9 C 10,1 C 0,0 C 86 % 91 % 1021,1 hPa 0,0 l/m 0,0 km/h (0 Bft) W 270 0 min 9,0 C 10,1 C 0,0 km/h (0 Bft)
12.08.2021 03:30 11,2 C 18,6 C 11,3 C 10,8 C 10,0 C 0,0 C 86 % 91 % 1021,1 hPa 0,0 l/m 0,0 km/h (0 Bft) W 270 0 min 8,9 C 10,0 C 0,0 km/h (0 Bft)
12.08.2021 03:35 11,2 C 18,6 C 11,3 C 10,8 C 10,1 C 0,0 C 87 % 91 % 1021,0 hPa 0,0 l/m 0,0 km/h (0 Bft) W 270 0 min 9,1 C 10,1 C 0,0 km/h (0 Bft)
12.08.2021 03:40 11,2 C 18,6 C 11,3 C 10,8 C 10,1 C 0,0 C 87 % 91 % 1021,0 hPa 0,0 l/m 0,0 km/h (0 Bft) W 270 0 min 9,1 C 10,1 C 0,0 km/h (0 Bft)
12.08.2021 03:45 11,1 C 18,6 C 11,2 C 10,7 C 10,0 C 0,0 C 87 % 91 % 1021,0 hPa 0,0 l/m 0,0 km/h (0 Bft) W 270 0 min 9,0 C 10,0 C 0,0 km/h (0 Bft)
12.08.2021 03:50 11,1 C 18,6 C 11,1 C 10,7 C 9,9 C 0,0 C 87 % 91 % 1021,0 hPa 0,0 l/m 0,0 km/h (0 Bft) W 270 0 min 9,0 C 9,9 C 0,0 km/h (0 Bft)
12.08.2021 03:55 11,1 C 18,6 C 11,1 C 10,7 C 9,9 C 0,0 C 87 % 91 % 1021,2 hPa 0,0 l/m 0,0 km/h (0 Bft) W 270 0 min 9,0 C 9,9 C 0,0 km/h (0 Bft)
12.08.2021 04:00 10,9 C 18,6 C 11,1 C 10,6 C 9,9 C 0,0 C 87 % 91 % 1021,2 hPa 0,0 l/m 0,0 km/h (0 Bft) W 270 0 min 8,8 C 9,9 C 0,0 km/h (0 Bft)
12.08.2021 04:05 10,8 C 18,6 C 11,1 C 10,5 C 9,9 C 0,0 C 87 % 91 % 1021,2 hPa 0,0 l/m 0,0 km/h (0 Bft) W 270 0 min 8,7 C 9,9 C 0,0 km/h (0 Bft)
12.08.2021 04:10 10,8 C 18,6 C 11,0 C 10,5 C 9,8 C 0,0 C 87 % 91 % 1021,2 hPa 0,0 l/m 0,0 km/h (0 Bft) W 270 0 min 8,7 C 9,8 C 0,0 km/h (0 Bft)
12.08.2021 04:15 10,9 C 18,6 C 11,0 C 10,5 C 9,8 C 0,0 C 87 % 91 % 1021,3 hPa 0,0 l/m 0,0 km/h (0 Bft) W 270 0 min 8,8 C 9,8 C 0,0 km/h (0 Bft)
12.08.2021 04:20 10,8 C 18,5 C 11,0 C 10,5 C 9,9 C 0,0 C 87 % 91 % 1021,3 hPa 0,0 l/m 0,0 km/h (0 Bft) W 270 0 min 8,7 C 9,9 C 0,0 km/h (0 Bft)
12.08.2021 04:25 10,8 C 18,5 C 11,0 C 10,5 C 9,9 C 0,0 C 87 % 91 % 1021,3 hPa 0,0 l/m 0,0 km/h (0 Bft) W 270 0 min 8,7 C 9,9 C 0,0 km/h (0 Bft)
12.08.2021 04:30 10,8 C 18,5 C 11,0 C 10,5 C 9,9 C 0,0 C 87 % 91 % 1021,3 hPa 0,0 l/m 0,0 km/h (0 Bft) W 270 0 min 8,7 C 9,9 C 0,0 km/h (0 Bft)
12.08.2021 04:35 10,7 C 18,5 C 10,9 C 10,4 C 9,8 C 0,0 C 87 % 91 % 1021,3 hPa 0,0 l/m 0,0 km/h (0 Bft) W 270 0 min 8,6 C 9,8 C 0,0 km/h (0 Bft)
12.08.2021 04:40 10,7 C 18,5 C 10,8 C 10,3 C 9,6 C 0,0 C 87 % 91 % 1021,3 hPa 0,0 l/m 0,0 km/h (0 Bft) W 270 0 min 8,6 C 9,6 C 0,0 km/h (0 Bft)
12.08.2021 04:45 10,7 C 18,5 C 10,7 C 10,3 C 9,5 C 0,0 C 87 % 91 % 1021,3 hPa 0,0 l/m 0,0 km/h (0 Bft) W 270 0 min 8,6 C 9,5 C 0,0 km/h (0 Bft)
12.08.2021 04:50 10,6 C 18,5 C 10,7 C 10,3 C 9,6 C 0,0 C 87 % 91 % 1021,3 hPa 0,0 l/m 0,0 km/h (0 Bft) W 270 0 min 8,5 C 9,6 C 0,0 km/h (0 Bft)
12.08.2021 04:55 10,5 C 18,4 C 10,7 C 10,2 C 9,6 C 0,0 C 87 % 91 % 1021,4 hPa 0,0 l/m 0,0 km/h (0 Bft) W 270 0 min 8,4 C 9,6 C 0,0 km/h (0 Bft)
12.08.2021 05:00 10,4 C 18,4 C 10,7 C 10,1 C 9,6 C 0,0 C 87 % 91 % 1021,4 hPa 0,0 l/m 0,0 km/h (0 Bft) W 270 0 min 8,3 C 9,6 C 0,0 km/h (0 Bft)
12.08.2021 05:05 10,4 C 18,4 C 10,6 C 10,1 C 9,6 C 0,0 C 87 % 91 % 1021,4 hPa 0,0 l/m 0,0 km/h (0 Bft) W 270 0 min 8,3 C 9,6 C 0,0 km/h (0 Bft)
12.08.2021 05:10 10,5 C 18,4 C 10,6 C 10,2 C 9,5 C 0,0 C 87 % 91 % 1021,4 hPa 0,0 l/m 0,0 km/h (0 Bft) W 270 0 min 8,4 C 9,5 C 0,0 km/h (0 Bft)
12.08.2021 05:15 10,3 C 18,4 C 10,6 C 10,0 C 9,5 C 0,0 C 87 % 91 % 1021,5 hPa 0,0 l/m 0,0 km/h (0 Bft) W 270 0 min 8,2 C 9,5 C 0,0 km/h (0 Bft)
12.08.2021 05:20 10,3 C 18,4 C 10,6 C 10,0 C 9,5 C 0,0 C 87 % 91 % 1021,5 hPa 0,0 l/m 0,0 km/h (0 Bft) W 270 0 min 8,2 C 9,5 C 0,0 km/h (0 Bft)
12.08.2021 05:25 10,2 C 18,4 C 10,7 C 10,0 C 9,5 C 0,0 C 87 % 91 % 1021,5 hPa 0,0 l/m 0,0 km/h (0 Bft) W 270 0 min 8,1 C 9,5 C 0,0 km/h (0 Bft)
12.08.2021 05:30 10,2 C 18,3 C 10,6 C 9,9 C 9,4 C 0,0 C 87 % 91 % 1021,5 hPa 0,0 l/m 0,0 km/h (0 Bft) W 270 0 min 8,1 C 9,4 C 0,0 km/h (0 Bft)
12.08.2021 05:35 10,3 C 18,3 C 10,5 C 10,0 C 9,4 C 0,0 C 87 % 91 % 1021,4 hPa 0,0 l/m 0,0 km/h (0 Bft) W 270 0 min 8,2 C 9,4 C 0,0 km/h (0 Bft)
12.08.2021 05:40 10,2 C 18,3 C 10,5 C 9,9 C 9,4 C 0,0 C 87 % 92 % 1021,4 hPa 0,0 l/m 0,0 km/h (0 Bft) W 270 0 min 8,1 C 9,4 C 0,0 km/h (0 Bft)
12.08.2021 05:45 10,1 C 18,3 C 10,5 C 9,9 C 9,5 C 0,0 C 88 % 92 % 1021,4 hPa 0,0 l/m 0,0 km/h (0 Bft) W 270 0 min 8,2 C 9,5 C 0,0 km/h (0 Bft)
12.08.2021 05:50 10,1 C 18,3 C 10,5 C 9,9 C 9,5 C 0,0 C 88 % 92 % 1021,4 hPa 0,0 l/m 0,0 km/h (0 Bft) W 270 0 min 8,2 C 9,5 C 0,0 km/h (0 Bft)
12.08.2021 05:55 10,1 C 18,2 C 10,4 C 9,9 C 9,4 C 0,0 C 88 % 91 % 1021,2 hPa 0,0 l/m 0,0 km/h (0 Bft) W 270 0 min 8,2 C 9,4 C 0,0 km/h (0 Bft)
12.08.2021 06:00 10,0 C 18,2 C 10,4 C 9,8 C 9,4 C 0,0 C 88 % 91 % 1021,2 hPa 0,0 l/m 0,0 km/h (0 Bft) W 270 0 min 8,1 C 9,4 C 0,0 km/h (0 Bft)
12.08.2021 06:05 10,1 C 18,2 C 10,4 C 9,8 C 9,3 C 0,0 C 88 % 91 % 1021,2 hPa 0,0 l/m 0,0 km/h (0 Bft) W 270 0 min 8,2 C 9,3 C 0,0 km/h (0 Bft)
12.08.2021 06:10 10,0 C 18,2 C 10,3 C 9,7 C 9,2 C 0,0 C 88 % 91 % 1021,2 hPa 0,0 l/m 0,0 km/h (0 Bft) W 270 0 min 8,1 C 9,2 C 0,0 km/h (0 Bft)
12.08.2021 06:15 9,9 C 18,2 C 10,3 C 9,7 C 9,2 C 0,0 C 88 % 91 % 1021,4 hPa 0,0 l/m 0,0 km/h (0 Bft) W 270 0 min 8,0 C 9,2 C 0,0 km/h (0 Bft)
12.08.2021 06:20 9,9 C 18,2 C 10,3 C 9,6 C 9,1 C 0,0 C 88 % 91 % 1021,4 hPa 0,0 l/m 0,0 km/h (0 Bft) W 270 0 min 8,0 C 9,1 C 0,0 km/h (0 Bft)
12.08.2021 06:25 9,8 C 18,1 C 10,3 C 9,6 C 9,2 C 0,0 C 88 % 91 % 1021,4 hPa 0,0 l/m 0,0 km/h (0 Bft) W 270 0 min 7,9 C 9,2 C 0,0 km/h (0 Bft)
12.08.2021 06:30 9,9 C 18,1 C 10,3 C 9,7 C 9,2 C 0,0 C 88 % 91 % 1021,4 hPa 0,0 l/m 0,0 km/h (0 Bft) W 270 0 min 8,0 C 9,2 C 0,0 km/h (0 Bft)
12.08.2021 06:35 9,9 C 18,1 C 10,3 C 9,7 C 9,4 C 0,0 C 88 % 92 % 1021,7 hPa 0,0 l/m 0,0 km/h (0 Bft) W 270 0 min 8,0 C 9,4 C 0,0 km/h (0 Bft)
12.08.2021 06:40 9,9 C 18,1 C 10,4 C 9,8 C 9,5 C 0,0 C 88 % 92 % 1021,7 hPa 0,0 l/m 0,0 km/h (0 Bft) W 270 0 min 8,0 C 9,5 C 0,0 km/h (0 Bft)
12.08.2021 06:45 9,8 C 18,1 C 10,5 C 9,8 C 9,7 C 0,0 C 88 % 92 % 1021,7 hPa 0,0 l/m 0,0 km/h (0 Bft) W 270 0 min 7,9 C 9,7 C 0,0 km/h (0 Bft)
12.08.2021 06:50 9,8 C 18,1 C 10,5 C 9,8 C 9,8 C 0,0 C 88 % 92 % 1021,7 hPa 0,0 l/m 0,0 km/h (0 Bft) W 270 0 min 7,9 C 9,8 C 0,0 km/h (0 Bft)
12.08.2021 06:55 9,8 C 18,1 C 10,9 C 9,9 C 9,9 C 0,1 C 88 % 92 % 1021,6 hPa 0,0 l/m 0,0 km/h (0 Bft) W 270 0 min 7,9 C 9,9 C 0,0 km/h (0 Bft)
12.08.2021 07:00 9,8 C 18,1 C 11,0 C 10,0 C 10,0 C 0,2 C 88 % 91 % 1021,6 hPa 0,0 l/m 0,0 km/h (0 Bft) W 270 0 min 7,9 C 10,0 C 0,0 km/h (0 Bft)
12.08.2021 07:05 9,8 C 18,1 C 11,1 C 10,1 C 10,1 C 0,3 C 88 % 92 % 1021,6 hPa 0,0 l/m 0,0 km/h (0 Bft) W 270 0 min 7,9 C 10,1 C 0,0 km/h (0 Bft)
12.08.2021 07:10 9,9 C 18,1 C 11,3 C 11,6 C 11,6 C 1,7 C 88 % 92 % 1021,6 hPa 0,0 l/m 0,0 km/h (0 Bft) W 270 0 min 8,0 C 11,6 C 0,0 km/h (0 Bft)
12.08.2021 07:15 9,9 C 18,1 C 11,5 C 14,4 C 14,4 C 4,5 C 88 % 91 % 1021,8 hPa 0,0 l/m 0,0 km/h (0 Bft) W 270 5 min 8,0 C 14,4 C 0,0 km/h (0 Bft)
12.08.2021 07:20 9,9 C 18,0 C 11,7 C 15,1 C 15,1 C 5,2 C 88 % 92 % 1021,8 hPa 0,0 l/m 0,0 km/h (0 Bft) W 270 5 min 8,0 C 15,1 C 0,0 km/h (0 Bft)
12.08.2021 07:25 10,1 C 18,1 C 12,1 C 17,0 C 17,0 C 6,9 C 88 % 91 % 1021,8 hPa 0,0 l/m 0,0 km/h (0 Bft) W 270 5 min 8,2 C 17,0 C 0,0 km/h (0 Bft)
12.08.2021 07:30 10,2 C 18,1 C 12,2 C 18,0 C 18,0 C 7,8 C 88 % 91 % 1021,8 hPa 0,0 l/m 0,0 km/h (0 Bft) W 270 5 min 8,3 C 18,0 C 0,0 km/h (0 Bft)
12.08.2021 07:35 10,5 C 18,0 C 12,6 C 19,5 C 19,5 C 9,0 C 87 % 91 % 1021,7 hPa 0,0 l/m 0,0 km/h (0 Bft) W 270 5 min 8,4 C 19,5 C 0,0 km/h (0 Bft)
12.08.2021 07:40 10,7 C 18,0 C 12,8 C 20,4 C 20,4 C 9,7 C 87 % 91 % 1021,7 hPa 0,0 l/m 0,0 km/h (0 Bft) W 270 5 min 8,6 C 20,4 C 0,0 km/h (0 Bft)
12.08.2021 07:45 11,1 C 18,0 C 13,0 C 21,3 C 21,3 C 10,2 C 88 % 91 % 1021,7 hPa 0,0 l/m 0,0 km/h (0 Bft) W 270 5 min 9,2 C 21,3 C 0,0 km/h (0 Bft)
12.08.2021 07:50 11,3 C 18,0 C 13,1 C 21,5 C 21,5 C 10,2 C 88 % 91 % 1021,7 hPa 0,0 l/m 0,0 km/h (0 Bft) W 270 5 min 9,4 C 21,5 C 0,0 km/h (0 Bft)
12.08.2021 07:55 11,5 C 17,9 C 13,3 C 21,8 C 21,8 C 10,3 C 88 % 91 % 1021,8 hPa 0,0 l/m 0,0 km/h (0 Bft) W 270 5 min 9,6 C 21,8 C 0,0 km/h (0 Bft)
12.08.2021 08:00 11,7 C 17,9 C 13,3 C 22,1 C 22,1 C 10,4 C 88 % 91 % 1021,8 hPa 0,0 l/m 0,0 km/h (0 Bft) W 270 5 min 9,8 C 22,1 C 0,0 km/h (0 Bft)
12.08.2021 08:05 12,1 C 17,9 C 13,4 C 23,2 C 23,2 C 11,1 C 88 % 91 % 1021,8 hPa 0,0 l/m 0,0 km/h (0 Bft) W 270 5 min 10,2 C 23,2 C 0,0 km/h (0 Bft)
12.08.2021 08:10 12,3 C 17,9 C 13,4 C 23,4 C 23,4 C 11,1 C 87 % 90 % 1021,8 hPa 0,0 l/m 0,0 km/h (0 Bft) W 270 5 min 10,2 C 23,4 C 0,0 km/h (0 Bft)
12.08.2021 08:15 12,7 C 17,9 C 13,6 C 23,9 C 23,9 C 11,2 C 88 % 90 % 1021,9 hPa 0,0 l/m 0,0 km/h (0 Bft) W 270 5 min 10,8 C 23,9 C 0,0 km/h (0 Bft)
12.08.2021 08:20 12,9 C 17,8 C 13,7 C 24,6 C 24,6 C 11,7 C 88 % 90 % 1021,9 hPa 0,0 l/m 0,0 km/h (0 Bft) W 270 5 min 11,0 C 24,6 C 0,0 km/h (0 Bft)
12.08.2021 08:25 13,4 C 17,8 C 13,9 C 26,1 C 26,1 C 12,7 C 88 % 90 % 1021,9 hPa 0,0 l/m 0,0 km/h (0 Bft) W 270 5 min 11,5 C 26,1 C 0,0 km/h (0 Bft)
12.08.2021 08:30 13,8 C 17,8 C 14,0 C 26,4 C 26,4 C 12,6 C 87 % 91 % 1021,9 hPa 0,0 l/m 0,0 km/h (0 Bft) W 270 5 min 11,7 C 26,4 C 0,0 km/h (0 Bft)
12.08.2021 08:35 14,5 C 17,8 C 14,1 C 27,2 C 27,2 C 12,7 C 87 % 90 % 1021,7 hPa 0,0 l/m 0,0 km/h (0 Bft) W 270 5 min 12,4 C 27,2 C 0,0 km/h (0 Bft)
12.08.2021 08:40 15,1 C 17,8 C 14,3 C 27,8 C 27,8 C 12,7 C 87 % 91 % 1021,7 hPa 0,0 l/m 0,0 km/h (0 Bft) W 270 5 min 13,0 C 27,8 C 0,0 km/h (0 Bft)
12.08.2021 08:45 15,9 C 17,8 C 14,4 C 28,7 C 28,7 C 12,8 C 87 % 90 % 1021,7 hPa 0,0 l/m 0,0 km/h (0 Bft) W 270 5 min 13,7 C 28,7 C 0,0 km/h (0 Bft)
12.08.2021 08:50 16,5 C 17,8 C 14,5 C 29,1 C 29,1 C 12,6 C 87 % 90 % 1021,7 hPa 0,0 l/m 0,0 km/h (0 Bft) W 270 5 min 14,3 C 29,1 C 0,0 km/h (0 Bft)
12.08.2021 08:55 17,5 C 17,8 C 14,8 C 29,6 C 29,6 C 12,1 C 87 % 91 % 1022,0 hPa 0,0 l/m 0,0 km/h (0 Bft) W 270 5 min 15,3 C 29,6 C 0,0 km/h (0 Bft)
12.08.2021 09:00 18,1 C 17,7 C 15,0 C 29,9 C 29,9 C 11,8 C 87 % 91 % 1022,0 hPa 0,0 l/m 0,0 km/h (0 Bft) W 270 5 min 15,9 C 29,9 C 0,0 km/h (0 Bft)
12.08.2021 09:05 18,7 C 17,6 C 15,1 C 30,3 C 30,3 C 11,6 C 85 % 90 % 1022,0 hPa 0,0 l/m 0,0 km/h (0 Bft) W 270 5 min 16,1 C 30,3 C 0,0 km/h (0 Bft)
12.08.2021 09:10 18,9 C 17,7 C 15,3 C 30,2 C 30,2 C 11,3 C 84 % 91 % 1022,0 hPa 0,0 l/m 0,0 km/h (0 Bft) W 270 5 min 16,1 C 30,2 C 0,0 km/h (0 Bft)
12.08.2021 09:15 19,3 C 17,7 C 15,7 C 28,4 C 28,4 C 9,1 C 82 % 91 % 1021,9 hPa 0,0 l/m 0,0 km/h (0 Bft) W 270 5 min 16,1 C 28,4 C 0,0 km/h (0 Bft)
12.08.2021 09:20 19,4 C 17,6 C 15,7 C 26,2 C 26,2 C 6,8 C 81 % 91 % 1021,9 hPa 0,0 l/m 0,0 km/h (0 Bft) W 270 5 min 16,1 C 26,2 C 0,0 km/h (0 Bft)
12.08.2021 09:25 19,5 C 17,7 C 15,9 C 23,9 C 23,9 C 4,4 C 80 % 90 % 1021,9 hPa 0,0 l/m 0,0 km/h (0 Bft) W 270 5 min 16,0 C 23,9 C 0,0 km/h (0 Bft)
12.08.2021 09:30 19,6 C 17,6 C 16,1 C 23,1 C 23,1 C 3,5 C 79 % 90 % 1021,9 hPa 0,0 l/m 0,0 km/h (0 Bft) W 270 5 min 15,9 C 23,1 C 0,0 km/h (0 Bft)
12.08.2021 09:35 19,8 C 17,6 C 16,3 C 22,7 C 22,7 C 2,9 C 79 % 90 % 1021,9 hPa 0,0 l/m 0,0 km/h (0 Bft) W 270 0 min 16,0 C 22,7 C 0,0 km/h (0 Bft)
12.08.2021 09:40 19,9 C 17,6 C 16,4 C 22,6 C 22,6 C 2,7 C 78 % 90 % 1021,9 hPa 0,0 l/m 0,0 km/h (0 Bft) W 270 0 min 15,9 C 22,6 C 0,0 km/h (0 Bft)
12.08.2021 09:45 20,0 C 17,6 C 16,7 C 22,1 C 22,1 C 2,1 C 78 % 90 % 1021,9 hPa 0,0 l/m 0,0 km/h (0 Bft) W 270 0 min 16,0 C 22,1 C 0,0 km/h (0 Bft)
12.08.2021 09:50 20,0 C 17,6 C 16,7 C 21,9 C 21,9 C 1,9 C 78 % 90 % 1021,9 hPa 0,0 l/m 0,0 km/h (0 Bft) W 270 0 min 16,0 C 21,9 C 0,0 km/h (0 Bft)
12.08.2021 09:55 20,3 C 17,6 C 17,1 C 21,8 C 21,8 C 1,5 C 77 % 89 % 1022,0 hPa 0,0 l/m 0,0 km/h (0 Bft) W 270 0 min 16,1 C 21,8 C 0,0 km/h (0 Bft)
12.08.2021 10:00 20,2 C 17,6 C 17,2 C 21,9 C 21,9 C 1,7 C 77 % 89 % 1022,0 hPa 0,0 l/m 0,0 km/h (0 Bft) W 270 0 min 16,0 C 21,9 C 0,0 km/h (0 Bft)
12.08.2021 10:05 20,4 C 17,5 C 17,5 C 22,2 C 22,2 C 1,8 C 76 % 88 % 1022,0 hPa 0,0 l/m 0,0 km/h (0 Bft) W 270 0 min 16,0 C 22,2 C 0,0 km/h (0 Bft)
12.08.2021 10:10 20,4 C 17,5 C 17,6 C 22,5 C 22,5 C 2,1 C 75 % 88 % 1022,0 hPa 0,0 l/m 0,0 km/h (0 Bft) W 270 0 min 15,8 C 22,5 C 0,0 km/h (0 Bft)
12.08.2021 10:15 20,5 C 17,5 C 17,9 C 22,5 C 22,5 C 2,0 C 74 % 87 % 1021,9 hPa 0,0 l/m 0,0 km/h (0 Bft) W 270 0 min 15,7 C 22,5 C 0,0 km/h (0 Bft)
12.08.2021 10:20 20,6 C 17,5 C 18,3 C 22,6 C 22,6 C 2,0 C 72 % 84 % 1021,9 hPa 0,0 l/m 0,6 km/h (0 Bft) NO 45 0 min 15,4 C 22,6 C 3,4 km/h (1 Bft)
12.08.2021 10:25 21,1 C 17,5 C 18,8 C 23,0 C 23,0 C 1,9 C 70 % 82 % 1021,9 hPa 0,0 l/m 1,1 km/h (1 Bft) SO 135 0 min 15,4 C 23,0 C 0,0 km/h (0 Bft)
12.08.2021 10:30 21,2 C 17,5 C 18,9 C 25,0 C 25,0 C 3,8 C 69 % 80 % 1021,9 hPa 0,0 l/m 1,1 km/h (1 Bft) O-SO 112 5 min 15,3 C 25,0 C 5,3 km/h (1 Bft)
12.08.2021 10:35 21,5 C 17,5 C 19,3 C 25,2 C 25,2 C 3,7 C 67 % 77 % 1021,9 hPa 0,0 l/m 1,3 km/h (1 Bft) O 90 5 min 15,1 C 25,2 C 3,5 km/h (1 Bft)
12.08.2021 10:40 21,7 C 17,5 C 19,7 C 24,5 C 24,5 C 2,8 C 65 % 76 % 1021,9 hPa 0,0 l/m 2,6 km/h (1 Bft) O-NO 67 0 min 14,8 C 24,5 C 5,8 km/h (2 Bft)
12.08.2021 10:45 22,1 C 17,6 C 19,9 C 24,2 C 24,2 C 2,1 C 63 % 75 % 1021,9 hPa 0,0 l/m 2,7 km/h (1 Bft) O 90 0 min 14,7 C 24,2 C 3,5 km/h (1 Bft)
12.08.2021 10:50 22,1 C 17,6 C 20,2 C 24,2 C 24,2 C 2,1 C 62 % 73 % 1021,9 hPa 0,0 l/m 1,8 km/h (1 Bft) NO 45 0 min 14,5 C 24,2 C 7,1 km/h (2 Bft)
12.08.2021 10:55 22,3 C 17,6 C 20,2 C 24,5 C 24,5 C 2,2 C 64 % 73 % 1021,9 hPa 0,0 l/m 1,0 km/h (0 Bft) O-SO 112 0 min 15,2 C 24,5 C 0,0 km/h (0 Bft)
12.08.2021 11:00 22,5 C 17,6 C 20,3 C 24,5 C 24,5 C 2,0 C 61 % 70 % 1021,9 hPa 0,0 l/m 1,1 km/h (1 Bft) NO 45 0 min 14,6 C 24,5 C 2,6 km/h (1 Bft)
12.08.2021 11:05 22,5 C 17,6 C 20,7 C 24,4 C 24,4 C 1,9 C 60 % 69 % 1021,9 hPa 0,0 l/m 2,1 km/h (1 Bft) O-NO 67 0 min 14,3 C 24,4 C 1,6 km/h (1 Bft)
12.08.2021 11:10 22,7 C 17,6 C 20,9 C 24,5 C 24,5 C 1,8 C 61 % 69 % 1021,9 hPa 0,0 l/m 2,1 km/h (1 Bft) NO 45 0 min 14,8 C 24,5 C 2,9 km/h (1 Bft)
12.08.2021 11:15 22,9 C 17,6 C 21,1 C 24,7 C 24,7 C 1,8 C 59 % 67 % 1021,7 hPa 0,0 l/m 1,8 km/h (1 Bft) N-NO 22 0 min 14,5 C 24,7 C 6,0 km/h (2 Bft)
12.08.2021 11:20 23,0 C 17,6 C 21,3 C 25,0 C 25,0 C 2,0 C 58 % 67 % 1021,7 hPa 0,0 l/m 1,9 km/h (1 Bft) W 270 0 min 14,3 C 25,0 C 0,0 km/h (0 Bft)
12.08.2021 11:25 23,2 C 17,5 C 21,4 C 25,6 C 25,6 C 2,4 C 58 % 68 % 1021,7 hPa 0,0 l/m 1,1 km/h (1 Bft) S-SW 202 0 min 14,5 C 25,6 C 0,0 km/h (0 Bft)
12.08.2021 11:30 23,3 C 17,6 C 21,4 C 26,0 C 26,0 C 2,7 C 57 % 67 % 1021,7 hPa 0,0 l/m 0,2 km/h (0 Bft) S 180 0 min 14,3 C 26,0 C 0,0 km/h (0 Bft)
12.08.2021 11:35 23,5 C 17,6 C 21,4 C 26,2 C 26,2 C 2,7 C 56 % 67 % 1021,4 hPa 0,0 l/m 0,0 km/h (0 Bft) S 180 0 min 14,2 C 26,2 C 0,0 km/h (0 Bft)
12.08.2021 11:40 23,5 C 17,6 C 21,5 C 26,3 C 26,3 C 2,8 C 56 % 67 % 1021,4 hPa 0,0 l/m 0,0 km/h (0 Bft) S 180 0 min 14,2 C 26,3 C 0,0 km/h (0 Bft)
12.08.2021 11:45 23,6 C 17,6 C 21,9 C 26,7 C 26,7 C 3,1 C 56 % 65 % 1021,4 hPa 0,0 l/m 0,0 km/h (0 Bft) SW 225 0 min 14,3 C 26,7 C 1,9 km/h (1 Bft)
12.08.2021 11:50 23,8 C 17,6 C 21,9 C 27,2 C 27,2 C 3,4 C 55 % 66 % 1021,4 hPa 0,0 l/m 0,0 km/h (0 Bft) SW 225 5 min 14,2 C 27,2 C 0,0 km/h (0 Bft)
12.08.2021 11:55 24,1 C 17,6 C 21,9 C 27,3 C 27,3 C 3,2 C 54 % 64 % 1021,4 hPa 0,0 l/m 0,2 km/h (0 Bft) N-NO 22 0 min 14,2 C 27,3 C 0,0 km/h (0 Bft)
12.08.2021 12:00 24,1 C 17,6 C 21,9 C 27,2 C 27,2 C 3,1 C 55 % 64 % 1021,4 hPa 0,0 l/m 0,3 km/h (0 Bft) S 180 0 min 14,5 C 27,2 C 3,9 km/h (1 Bft)
12.08.2021 12:05 24,1 C 17,6 C 21,8 C 27,0 C 27,0 C 2,9 C 53 % 63 % 1021,4 hPa 0,0 l/m 0,2 km/h (0 Bft) SW 225 0 min 13,9 C 27,0 C 0,0 km/h (0 Bft)
12.08.2021 12:10 24,1 C 17,7 C 21,7 C 26,7 C 26,7 C 2,6 C 51 % 64 % 1021,4 hPa 0,0 l/m 0,2 km/h (0 Bft) SW 225 0 min 13,3 C 26,7 C 0,0 km/h (0 Bft)
12.08.2021 12:15 24,1 C 17,7 C 21,7 C 26,7 C 26,7 C 2,6 C 52 % 63 % 1021,4 hPa 0,0 l/m 0,0 km/h (0 Bft) SW 225 0 min 13,6 C 26,7 C 0,0 km/h (0 Bft)
12.08.2021 12:20 24,3 C 17,7 C 21,9 C 27,2 C 27,2 C 2,9 C 53 % 63 % 1021,4 hPa 0,0 l/m 0,0 km/h (0 Bft) SW 225 0 min 14,1 C 27,2 C 0,0 km/h (0 Bft)
12.08.2021 12:25 24,7 C 17,7 C 22,3 C 28,1 C 28,1 C 3,4 C 53 % 63 % 1021,4 hPa 0,0 l/m 0,2 km/h (0 Bft) S 180 5 min 14,5 C 28,1 C 0,0 km/h (0 Bft)
12.08.2021 12:30 25,0 C 17,7 C 22,5 C 28,9 C 28,9 C 3,9 C 53 % 63 % 1021,4 hPa 0,0 l/m 0,3 km/h (0 Bft) NW 315 5 min 14,7 C 28,9 C 0,0 km/h (0 Bft)
12.08.2021 12:35 25,3 C 17,7 C 22,5 C 30,1 C 30,1 C 4,8 C 53 % 64 % 1021,5 hPa 0,0 l/m 0,2 km/h (0 Bft) S-SW 202 5 min 15,0 C 30,1 C 0,0 km/h (0 Bft)
12.08.2021 12:40 25,7 C 17,8 C 22,5 C 30,0 C 30,0 C 4,3 C 53 % 63 % 1021,5 hPa 0,0 l/m 0,0 km/h (0 Bft) NW 315 5 min 15,4 C 30,0 C 0,0 km/h (0 Bft)
12.08.2021 12:45 25,7 C 17,8 C 22,6 C 30,5 C 30,5 C 4,8 C 50 % 61 % 1021,5 hPa 0,0 l/m 0,3 km/h (0 Bft) W-SW 247 5 min 14,5 C 30,5 C 0,0 km/h (0 Bft)
12.08.2021 12:50 25,7 C 17,8 C 22,8 C 31,5 C 31,5 C 5,8 C 51 % 61 % 1021,5 hPa 0,0 l/m 0,5 km/h (0 Bft) O-SO 112 5 min 14,8 C 31,5 C 0,0 km/h (0 Bft)
12.08.2021 12:55 26,2 C 17,8 C 22,9 C 32,8 C 32,8 C 6,6 C 50 % 62 % 1021,4 hPa 0,0 l/m 0,8 km/h (0 Bft) SW 225 5 min 14,9 C 32,8 C 2,4 km/h (1 Bft)
12.08.2021 13:00 26,2 C 17,7 C 22,9 C 32,3 C 32,3 C 6,1 C 49 % 63 % 1021,4 hPa 0,0 l/m 1,0 km/h (0 Bft) SW 225 5 min 14,6 C 32,3 C 0,0 km/h (0 Bft)
12.08.2021 13:05 26,1 C 17,8 C 23,0 C 32,5 C 32,5 C 6,4 C 49 % 62 % 1021,4 hPa 0,0 l/m 1,4 km/h (1 Bft) W-NW 292 5 min 14,5 C 32,5 C 2,9 km/h (1 Bft)
12.08.2021 13:10 25,8 C 17,8 C 23,4 C 32,2 C 32,2 C 6,4 C 49 % 57 % 1021,4 hPa 0,0 l/m 1,8 km/h (1 Bft) O-NO 67 5 min 14,3 C 32,2 C 0,0 km/h (0 Bft)
12.08.2021 13:15 25,9 C 17,8 C 22,9 C 31,0 C 31,0 C 5,1 C 49 % 60 % 1021,4 hPa 0,0 l/m 1,4 km/h (1 Bft) SW 225 5 min 14,4 C 31,0 C 0,0 km/h (0 Bft)
12.08.2021 13:20 25,8 C 17,9 C 22,8 C 29,7 C 29,7 C 3,9 C 50 % 60 % 1021,4 hPa 0,0 l/m 0,5 km/h (0 Bft) N-NO 22 5 min 14,6 C 29,7 C 0,0 km/h (0 Bft)
12.08.2021 13:25 25,9 C 17,9 C 23,1 C 30,3 C 30,3 C 4,4 C 51 % 60 % 1021,4 hPa 0,0 l/m 0,3 km/h (0 Bft) N 360 5 min 15,0 C 30,3 C 1,9 km/h (1 Bft)
12.08.2021 13:30 26,3 C 17,8 C 23,5 C 31,3 C 31,3 C 5,0 C 51 % 62 % 1021,4 hPa 0,0 l/m 0,3 km/h (0 Bft) SW 225 5 min 15,3 C 31,3 C 0,0 km/h (0 Bft)
12.08.2021 13:35 26,4 C 17,9 C 23,6 C 31,7 C 31,7 C 5,3 C 49 % 57 % 1021,2 hPa 0,0 l/m 1,0 km/h (0 Bft) NW 315 5 min 14,8 C 31,7 C 3,2 km/h (1 Bft)
12.08.2021 13:40 26,2 C 17,9 C 23,5 C 31,5 C 31,5 C 5,3 C 49 % 60 % 1021,2 hPa 0,0 l/m 0,8 km/h (0 Bft) SW 225 5 min 14,6 C 31,5 C 0,0 km/h (0 Bft)
12.08.2021 13:45 26,5 C 17,9 C 23,5 C 31,9 C 31,9 C 5,4 C 51 % 60 % 1021,2 hPa 0,0 l/m 0,5 km/h (0 Bft) S 180 5 min 15,5 C 31,9 C 0,0 km/h (0 Bft)
12.08.2021 13:50 26,8 C 17,9 C 23,4 C 31,6 C 31,6 C 4,8 C 50 % 61 % 1021,2 hPa 0,0 l/m 0,3 km/h (0 Bft) S-SO 157 5 min 15,5 C 31,6 C 0,0 km/h (0 Bft)
12.08.2021 13:55 26,9 C 17,9 C 23,6 C 31,5 C 31,5 C 4,6 C 48 % 60 % 1021,1 hPa 0,0 l/m 0,6 km/h (0 Bft) W 270 5 min 14,9 C 31,5 C 0,0 km/h (0 Bft)
12.08.2021 14:00 27,1 C 17,9 C 23,8 C 31,8 C 31,8 C 4,7 C 48 % 59 % 1021,1 hPa 0,0 l/m 0,8 km/h (0 Bft) N-NO 22 5 min 15,1 C 31,8 C 0,0 km/h (0 Bft)
12.08.2021 14:05 26,9 C 18,0 C 24,5 C 32,2 C 32,2 C 5,3 C 47 % 59 % 1021,1 hPa 0,0 l/m 0,8 km/h (0 Bft) SW 225 5 min 14,6 C 32,2 C 1,8 km/h (1 Bft)
12.08.2021 14:10 26,9 C 18,0 C 24,5 C 32,7 C 32,7 C 5,8 C 46 % 56 % 1021,1 hPa 0,0 l/m 0,5 km/h (0 Bft) W-SW 247 5 min 14,3 C 32,7 C 0,0 km/h (0 Bft)
12.08.2021 14:15 26,8 C 18,0 C 24,4 C 33,0 C 33,0 C 6,2 C 46 % 58 % 1021,0 hPa 0,0 l/m 0,8 km/h (0 Bft) W-SW 247 5 min 14,2 C 33,0 C 2,4 km/h (1 Bft)
12.08.2021 14:20 26,8 C 18,0 C 24,3 C 33,1 C 33,1 C 6,3 C 46 % 56 % 1021,0 hPa 0,0 l/m 1,4 km/h (1 Bft) N-NO 22 5 min 14,2 C 33,1 C 2,4 km/h (1 Bft)
12.08.2021 14:25 26,8 C 18,0 C 24,5 C 33,0 C 33,0 C 6,2 C 46 % 57 % 1021,0 hPa 0,0 l/m 1,3 km/h (1 Bft) S-SO 157 5 min 14,2 C 33,0 C 1,9 km/h (1 Bft)
12.08.2021 14:30 26,8 C 18,1 C 24,3 C 32,9 C 32,9 C 6,1 C 45 % 55 % 1021,0 hPa 0,0 l/m 0,6 km/h (0 Bft) N-NO 22 5 min 13,9 C 32,9 C 0,0 km/h (0 Bft)
12.08.2021 14:35 26,7 C 18,1 C 24,2 C 33,0 C 33,0 C 6,3 C 45 % 54 % 1021,2 hPa 0,0 l/m 0,8 km/h (0 Bft) O-NO 67 5 min 13,8 C 33,0 C 1,8 km/h (1 Bft)
12.08.2021 14:40 26,5 C 18,1 C 24,2 C 32,8 C 32,8 C 6,3 C 46 % 53 % 1021,2 hPa 0,0 l/m 1,0 km/h (0 Bft) NO 45 5 min 13,9 C 32,8 C 2,7 km/h (1 Bft)
12.08.2021 14:45 26,6 C 18,1 C 24,3 C 33,1 C 33,1 C 6,5 C 44 % 54 % 1021,2 hPa 0,0 l/m 0,6 km/h (0 Bft) O-SO 112 5 min 13,3 C 33,1 C 0,0 km/h (0 Bft)
12.08.2021 14:50 26,5 C 18,1 C 24,2 C 33,2 C 33,2 C 6,7 C 44 % 53 % 1021,2 hPa 0,0 l/m 0,6 km/h (0 Bft) N-NO 22 5 min 13,2 C 33,2 C 0,0 km/h (0 Bft)
12.08.2021 14:55 26,6 C 18,2 C 24,2 C 33,5 C 33,5 C 6,9 C 46 % 54 % 1020,8 hPa 0,0 l/m 0,5 km/h (0 Bft) W-SW 247 5 min 14,0 C 33,5 C 0,0 km/h (0 Bft)
12.08.2021 15:00 26,5 C 18,2 C 24,3 C 33,4 C 33,4 C 6,9 C 44 % 52 % 1020,8 hPa 0,0 l/m 0,2 km/h (0 Bft) NW 315 5 min 13,2 C 33,4 C 0,0 km/h (0 Bft)
12.08.2021 15:05 26,4 C 18,2 C 24,1 C 33,5 C 33,5 C 7,1 C 46 % 53 % 1020,8 hPa 0,0 l/m 0,3 km/h (0 Bft) SW 225 5 min 13,8 C 33,5 C 1,6 km/h (1 Bft)
12.08.2021 15:10 26,5 C 18,2 C 24,3 C 33,4 C 33,4 C 6,9 C 44 % 54 % 1020,8 hPa 0,0 l/m 0,8 km/h (0 Bft) S-SW 202 5 min 13,2 C 33,4 C 0,0 km/h (0 Bft)
12.08.2021 15:15 26,5 C 18,2 C 24,3 C 33,1 C 33,1 C 6,6 C 44 % 51 % 1020,8 hPa 0,0 l/m 1,4 km/h (1 Bft) W-NW 292 5 min 13,2 C 33,1 C 4,5 km/h (1 Bft)
12.08.2021 15:20 26,4 C 18,3 C 24,5 C 32,8 C 32,8 C 6,4 C 44 % 49 % 1020,8 hPa 0,0 l/m 1,6 km/h (1 Bft) W-NW 292 5 min 13,1 C 32,8 C 4,2 km/h (1 Bft)
12.08.2021 15:25 26,3 C 18,3 C 24,5 C 32,6 C 32,6 C 6,3 C 44 % 50 % 1020,8 hPa 0,0 l/m 1,6 km/h (1 Bft) NW 315 5 min 13,1 C 32,6 C 0,0 km/h (0 Bft)
12.08.2021 15:30 26,4 C 18,3 C 24,6 C 33,4 C 33,4 C 7,0 C 47 % 53 % 1020,8 hPa 0,0 l/m 1,0 km/h (0 Bft) W 270 5 min 14,2 C 33,4 C 6,8 km/h (2 Bft)
12.08.2021 15:35 26,6 C 18,3 C 24,9 C 33,6 C 33,6 C 7,0 C 46 % 50 % 1020,6 hPa 0,0 l/m 1,3 km/h (1 Bft) SW 225 5 min 14,0 C 33,6 C 3,2 km/h (1 Bft)
12.08.2021 15:40 26,5 C 18,4 C 24,9 C 33,6 C 33,6 C 7,1 C 45 % 49 % 1020,6 hPa 0,0 l/m 2,1 km/h (1 Bft) W 270 5 min 13,6 C 33,6 C 7,4 km/h (2 Bft)
12.08.2021 15:45 26,7 C 18,4 C 24,9 C 33,5 C 33,5 C 6,8 C 46 % 53 % 1020,6 hPa 0,0 l/m 1,3 km/h (1 Bft) W 270 5 min 14,1 C 33,5 C 2,6 km/h (1 Bft)
12.08.2021 15:50 26,6 C 18,4 C 25,0 C 33,2 C 33,2 C 6,6 C 46 % 54 % 1020,6 hPa 0,0 l/m 0,8 km/h (0 Bft) SW 225 5 min 14,0 C 33,2 C 0,0 km/h (0 Bft)
12.08.2021 15:55 26,7 C 18,4 C 24,9 C 33,4 C 33,4 C 6,7 C 45 % 50 % 1020,2 hPa 0,0 l/m 1,3 km/h (1 Bft) N-NW 337 5 min 13,8 C 33,4 C 4,0 km/h (1 Bft)
12.08.2021 16:00 26,7 C 18,4 C 24,9 C 33,4 C 33,4 C 6,7 C 46 % 53 % 1020,2 hPa 0,0 l/m 1,1 km/h (1 Bft) W 270 5 min 14,1 C 33,4 C 2,6 km/h (1 Bft)
12.08.2021 16:05 26,7 C 18,5 C 25,0 C 33,5 C 33,5 C 6,8 C 45 % 50 % 1020,2 hPa 0,0 l/m 1,1 km/h (1 Bft) W-NW 292 5 min 13,8 C 33,5 C 4,2 km/h (1 Bft)
12.08.2021 16:10 26,6 C 18,5 C 25,0 C 33,5 C 33,5 C 6,9 C 44 % 49 % 1020,2 hPa 0,0 l/m 1,1 km/h (1 Bft) W-SW 247 5 min 13,3 C 33,5 C 1,6 km/h (1 Bft)
12.08.2021 16:15 26,7 C 18,5 C 24,9 C 33,5 C 33,5 C 6,8 C 45 % 51 % 1020,3 hPa 0,0 l/m 0,6 km/h (0 Bft) O 90 5 min 13,8 C 33,5 C 0,0 km/h (0 Bft)
12.08.2021 16:20 26,5 C 18,5 C 24,8 C 33,0 C 33,0 C 6,5 C 46 % 52 % 1020,3 hPa 0,0 l/m 0,3 km/h (0 Bft) O 90 5 min 13,9 C 33,0 C 0,0 km/h (0 Bft)
12.08.2021 16:25 26,5 C 18,6 C 24,8 C 33,2 C 33,2 C 6,7 C 46 % 53 % 1020,3 hPa 0,0 l/m 0,0 km/h (0 Bft) W-NW 292 5 min 13,9 C 33,2 C 0,0 km/h (0 Bft)
12.08.2021 16:30 26,7 C 18,6 C 24,9 C 33,4 C 33,4 C 6,7 C 46 % 51 % 1020,3 hPa 0,0 l/m 0,5 km/h (0 Bft) N-NW 337 5 min 14,1 C 33,4 C 3,9 km/h (1 Bft)
12.08.2021 16:35 26,6 C 18,6 C 25,1 C 33,2 C 33,2 C 6,6 C 47 % 53 % 1020,2 hPa 0,0 l/m 1,3 km/h (1 Bft) W 270 5 min 14,3 C 33,2 C 4,7 km/h (1 Bft)
12.08.2021 16:40 26,7 C 18,6 C 25,1 C 32,9 C 32,9 C 6,2 C 47 % 52 % 1020,2 hPa 0,0 l/m 1,4 km/h (1 Bft) N-NW 337 5 min 14,4 C 32,9 C 7,6 km/h (2 Bft)
12.08.2021 16:45 26,9 C 18,7 C 25,1 C 31,9 C 31,9 C 5,0 C 47 % 52 % 1020,2 hPa 0,0 l/m 1,3 km/h (1 Bft) SW 225 5 min 14,6 C 31,9 C 0,0 km/h (0 Bft)
12.08.2021 16:50 26,9 C 18,7 C 25,0 C 31,2 C 31,2 C 4,3 C 46 % 51 % 1020,2 hPa 0,0 l/m 1,1 km/h (1 Bft) W 270 5 min 14,3 C 31,2 C 3,7 km/h (1 Bft)
12.08.2021 16:55 26,8 C 18,7 C 25,0 C 30,2 C 30,2 C 3,4 C 47 % 52 % 1020,0 hPa 0,0 l/m 1,3 km/h (1 Bft) NW 315 5 min 14,5 C 30,2 C 0,0 km/h (0 Bft)
12.08.2021 17:00 26,8 C 18,7 C 25,0 C 29,9 C 29,9 C 3,1 C 47 % 53 % 1020,0 hPa 0,0 l/m 1,1 km/h (1 Bft) NW 315 0 min 14,5 C 29,9 C 0,0 km/h (0 Bft)
12.08.2021 17:05 26,9 C 18,7 C 24,9 C 29,6 C 29,6 C 2,7 C 46 % 56 % 1020,0 hPa 0,0 l/m 0,6 km/h (0 Bft) SW 225 0 min 14,3 C 29,6 C 0,0 km/h (0 Bft)
12.08.2021 17:10 27,0 C 18,7 C 24,8 C 29,5 C 29,5 C 2,5 C 47 % 56 % 1020,0 hPa 0,0 l/m 0,5 km/h (0 Bft) S 180 0 min 14,7 C 29,5 C 1,9 km/h (1 Bft)
12.08.2021 17:15 27,1 C 18,8 C 24,7 C 29,3 C 29,3 C 2,2 C 46 % 55 % 1019,8 hPa 0,0 l/m 0,2 km/h (0 Bft) N-NW 337 0 min 14,5 C 29,3 C 0,0 km/h (0 Bft)
12.08.2021 17:20 27,1 C 18,8 C 24,6 C 29,1 C 29,1 C 2,0 C 46 % 55 % 1019,8 hPa 0,0 l/m 0,0 km/h (0 Bft) N-NW 337 0 min 14,5 C 29,1 C 0,0 km/h (0 Bft)
12.08.2021 17:25 27,1 C 18,8 C 24,7 C 28,9 C 28,9 C 1,8 C 45 % 51 % 1019,8 hPa 0,0 l/m 0,6 km/h (0 Bft) NW 315 0 min 14,1 C 28,9 C 5,3 km/h (1 Bft)
12.08.2021 17:30 27,0 C 18,8 C 24,9 C 28,8 C 28,8 C 1,8 C 46 % 53 % 1019,8 hPa 0,0 l/m 1,1 km/h (1 Bft) W-SW 247 0 min 14,4 C 28,8 C 0,0 km/h (0 Bft)
12.08.2021 17:35 27,1 C 18,9 C 24,7 C 28,6 C 28,6 C 1,5 C 46 % 55 % 1019,4 hPa 0,0 l/m 0,8 km/h (0 Bft) W-SW 247 0 min 14,5 C 28,6 C 0,0 km/h (0 Bft)
12.08.2021 17:40 27,0 C 18,9 C 24,7 C 28,6 C 28,6 C 1,6 C 45 % 53 % 1019,4 hPa 0,0 l/m 0,8 km/h (0 Bft) W 270 0 min 14,0 C 28,6 C 0,0 km/h (0 Bft)
12.08.2021 17:45 26,8 C 18,9 C 24,7 C 28,3 C 28,3 C 1,5 C 46 % 52 % 1019,4 hPa 0,0 l/m 0,8 km/h (0 Bft) NO 45 0 min 14,2 C 28,3 C 0,0 km/h (0 Bft)
12.08.2021 17:50 26,9 C 18,9 C 24,6 C 28,2 C 28,2 C 1,3 C 46 % 53 % 1019,4 hPa 0,0 l/m 0,0 km/h (0 Bft) O-NO 67 0 min 14,3 C 28,2 C 0,0 km/h (0 Bft)
12.08.2021 17:55 26,7 C 18,9 C 24,4 C 27,9 C 27,9 C 1,2 C 47 % 54 % 1019,2 hPa 0,0 l/m 0,0 km/h (0 Bft) O-NO 67 0 min 14,4 C 27,9 C 0,0 km/h (0 Bft)
12.08.2021 18:00 26,7 C 18,9 C 24,4 C 27,8 C 27,8 C 1,1 C 47 % 54 % 1019,2 hPa 0,0 l/m 0,0 km/h (0 Bft) O-NO 67 0 min 14,4 C 27,8 C 0,0 km/h (0 Bft)
12.08.2021 18:05 26,5 C 18,9 C 24,3 C 27,6 C 27,6 C 1,1 C 48 % 55 % 1019,2 hPa 0,0 l/m 0,0 km/h (0 Bft) O-SO 112 0 min 14,6 C 27,6 C 0,0 km/h (0 Bft)
12.08.2021 18:10 26,5 C 18,9 C 24,2 C 27,4 C 27,4 C 0,9 C 49 % 57 % 1019,2 hPa 0,0 l/m 0,0 km/h (0 Bft) O-SO 112 0 min 14,9 C 27,4 C 0,0 km/h (0 Bft)
12.08.2021 18:15 26,2 C 19,0 C 24,1 C 27,2 C 27,2 C 1,0 C 48 % 55 % 1019,2 hPa 0,0 l/m 0,0 km/h (0 Bft) O-SO 112 0 min 14,3 C 27,2 C 0,0 km/h (0 Bft)
12.08.2021 18:20 26,1 C 19,0 C 24,1 C 27,2 C 27,2 C 1,1 C 48 % 55 % 1019,2 hPa 0,0 l/m 0,0 km/h (0 Bft) O-SO 112 0 min 14,2 C 27,2 C 0,0 km/h (0 Bft)
12.08.2021 18:25 26,3 C 19,0 C 24,1 C 27,3 C 27,3 C 1,0 C 49 % 56 % 1019,2 hPa 0,0 l/m 0,0 km/h (0 Bft) O-SO 112 0 min 14,7 C 27,3 C 0,0 km/h (0 Bft)
12.08.2021 18:30 26,2 C 19,0 C 24,1 C 27,4 C 27,4 C 1,2 C 50 % 57 % 1019,2 hPa 0,0 l/m 0,0 km/h (0 Bft) O-SO 112 0 min 14,9 C 27,4 C 0,0 km/h (0 Bft)
12.08.2021 18:35 26,2 C 19,0 C 24,1 C 27,4 C 27,4 C 1,2 C 49 % 56 % 1019,2 hPa 0,0 l/m 0,2 km/h (0 Bft) W 270 0 min 14,6 C 27,4 C 2,3 km/h (1 Bft)
12.08.2021 18:40 26,3 C 19,0 C 24,1 C 27,4 C 27,4 C 1,1 C 49 % 54 % 1019,2 hPa 0,0 l/m 0,2 km/h (0 Bft) W 270 0 min 14,7 C 27,4 C 0,0 km/h (0 Bft)
12.08.2021 18:45 26,3 C 19,1 C 24,1 C 27,0 C 27,0 C 0,7 C 51 % 58 % 1019,2 hPa 0,0 l/m 0,2 km/h (0 Bft) W 270 0 min 15,3 C 27,0 C 0,0 km/h (0 Bft)
12.08.2021 18:50 26,2 C 19,1 C 23,9 C 26,8 C 26,8 C 0,6 C 52 % 60 % 1019,2 hPa 0,0 l/m 0,0 km/h (0 Bft) W 270 0 min 15,6 C 26,8 C 0,0 km/h (0 Bft)
12.08.2021 18:55 26,0 C 19,1 C 23,8 C 26,5 C 26,5 C 0,5 C 52 % 59 % 1019,2 hPa 0,0 l/m 0,0 km/h (0 Bft) W 270 0 min 15,4 C 26,5 C 0,0 km/h (0 Bft)
12.08.2021 19:00 26,0 C 19,1 C 23,6 C 26,2 C 26,2 C 0,2 C 53 % 60 % 1019,2 hPa 0,0 l/m 0,0 km/h (0 Bft) W 270 0 min 15,7 C 26,2 C 0,0 km/h (0 Bft)
12.08.2021 19:05 25,9 C 19,1 C 23,3 C 25,8 C 25,7 C 0,0 C 54 % 62 % 1019,2 hPa 0,0 l/m 0,0 km/h (0 Bft) W 270 0 min 15,9 C 25,7 C 0,0 km/h (0 Bft)
12.08.2021 19:10 25,5 C 19,1 C 23,1 C 25,4 C 25,3 C 0,0 C 56 % 64 % 1019,2 hPa 0,0 l/m 0,0 km/h (0 Bft) W 270 0 min 16,1 C 25,3 C 0,0 km/h (0 Bft)
12.08.2021 19:15 25,1 C 19,2 C 22,9 C 25,0 C 24,9 C 0,0 C 56 % 65 % 1019,1 hPa 0,0 l/m 0,0 km/h (0 Bft) O-NO 67 0 min 15,7 C 24,9 C 1,6 km/h (1 Bft)
12.08.2021 19:20 24,9 C 19,3 C 22,7 C 24,9 C 24,8 C 0,0 C 57 % 67 % 1019,1 hPa 0,0 l/m 0,0 km/h (0 Bft) O-NO 67 0 min 15,8 C 24,8 C 0,0 km/h (0 Bft)
12.08.2021 19:25 24,7 C 19,3 C 22,6 C 24,7 C 24,6 C 0,0 C 57 % 68 % 1019,1 hPa 0,0 l/m 0,0 km/h (0 Bft) O-NO 67 0 min 15,6 C 24,6 C 0,0 km/h (0 Bft)
12.08.2021 19:30 24,6 C 19,3 C 22,5 C 24,6 C 24,5 C 0,0 C 58 % 69 % 1019,1 hPa 0,0 l/m 0,0 km/h (0 Bft) O-NO 67 0 min 15,8 C 24,5 C 1,8 km/h (1 Bft)
12.08.2021 19:35 24,3 C 19,3 C 22,3 C 24,4 C 24,4 C 0,1 C 58 % 69 % 1019,2 hPa 0,0 l/m 0,2 km/h (0 Bft) O-NO 67 0 min 15,5 C 24,4 C 0,0 km/h (0 Bft)
12.08.2021 19:40 24,3 C 19,3 C 22,3 C 24,3 C 24,3 C 0,0 C 58 % 70 % 1019,2 hPa 0,0 l/m 0,3 km/h (0 Bft) O-NO 67 0 min 15,5 C 24,3 C 0,0 km/h (0 Bft)
12.08.2021 19:45 24,0 C 19,3 C 22,2 C 24,4 C 24,4 C 0,4 C 58 % 70 % 1019,2 hPa 0,0 l/m 0,2 km/h (0 Bft) O-NO 67 0 min 15,2 C 24,4 C 0,0 km/h (0 Bft)
12.08.2021 19:50 24,1 C 19,3 C 22,1 C 24,4 C 24,4 C 0,3 C 57 % 68 % 1019,2 hPa 0,0 l/m 0,0 km/h (0 Bft) O-NO 67 0 min 15,0 C 24,4 C 0,0 km/h (0 Bft)
12.08.2021 19:55 23,8 C 19,3 C 21,9 C 24,1 C 24,1 C 0,3 C 59 % 70 % 1019,1 hPa 0,0 l/m 0,2 km/h (0 Bft) O-NO 67 0 min 15,3 C 24,1 C 0,0 km/h (0 Bft)
12.08.2021 20:00 23,7 C 19,3 C 21,9 C 23,7 C 23,7 C 0,0 C 59 % 70 % 1019,1 hPa 0,0 l/m 0,2 km/h (0 Bft) O-NO 67 0 min 15,2 C 23,7 C 0,0 km/h (0 Bft)
12.08.2021 20:05 23,6 C 19,3 C 21,7 C 23,5 C 23,4 C 0,0 C 59 % 68 % 1019,1 hPa 0,0 l/m 0,0 km/h (0 Bft) O-NO 67 0 min 15,1 C 23,4 C 0,0 km/h (0 Bft)
12.08.2021 20:10 23,5 C 19,3 C 21,6 C 23,4 C 23,1 C 0,0 C 61 % 69 % 1019,1 hPa 0,0 l/m 0,0 km/h (0 Bft) O-NO 67 0 min 15,5 C 23,1 C 0,0 km/h (0 Bft)
12.08.2021 20:15 23,2 C 19,3 C 21,3 C 23,0 C 22,6 C 0,0 C 61 % 70 % 1019,1 hPa 0,0 l/m 0,0 km/h (0 Bft) O-NO 67 0 min 15,3 C 22,6 C 0,0 km/h (0 Bft)
12.08.2021 20:20 23,1 C 19,3 C 21,1 C 22,8 C 22,2 C 0,0 C 61 % 71 % 1019,1 hPa 0,0 l/m 0,0 km/h (0 Bft) O-NO 67 0 min 15,2 C 22,2 C 0,0 km/h (0 Bft)
12.08.2021 20:25 22,8 C 19,4 C 21,0 C 22,4 C 21,7 C 0,0 C 61 % 69 % 1019,1 hPa 0,0 l/m 0,0 km/h (0 Bft) O-NO 67 0 min 14,9 C 21,7 C 0,0 km/h (0 Bft)
12.08.2021 20:30 22,7 C 19,4 C 20,9 C 22,3 C 21,4 C 0,0 C 61 % 69 % 1019,1 hPa 0,0 l/m 0,0 km/h (0 Bft) O-NO 67 0 min 14,8 C 21,4 C 0,0 km/h (0 Bft)
12.08.2021 20:35 22,4 C 19,4 C 20,7 C 21,9 C 20,9 C 0,0 C 62 % 71 % 1019,2 hPa 0,0 l/m 0,0 km/h (0 Bft) O-NO 67 0 min 14,8 C 20,9 C 0,0 km/h (0 Bft)
12.08.2021 20:40 22,1 C 19,5 C 20,4 C 21,6 C 20,6 C 0,0 C 63 % 71 % 1019,2 hPa 0,0 l/m 0,0 km/h (0 Bft) O-NO 67 0 min 14,7 C 20,6 C 0,0 km/h (0 Bft)
12.08.2021 20:45 21,8 C 19,5 C 20,1 C 21,3 C 20,2 C 0,0 C 63 % 73 % 1019,2 hPa 0,0 l/m 0,0 km/h (0 Bft) O-NO 67 0 min 14,4 C 20,2 C 0,0 km/h (0 Bft)
12.08.2021 20:50 21,7 C 19,5 C 19,9 C 21,1 C 19,9 C 0,0 C 63 % 73 % 1019,2 hPa 0,0 l/m 0,0 km/h (0 Bft) O-NO 67 0 min 14,3 C 19,9 C 0,0 km/h (0 Bft)
12.08.2021 20:55 21,5 C 19,5 C 19,7 C 20,8 C 19,5 C 0,0 C 65 % 74 % 1019,2 hPa 0,0 l/m 0,0 km/h (0 Bft) O-NO 67 0 min 14,6 C 19,5 C 0,0 km/h (0 Bft)
12.08.2021 21:00 21,3 C 19,5 C 19,5 C 20,6 C 19,3 C 0,0 C 66 % 75 % 1019,2 hPa 0,0 l/m 0,0 km/h (0 Bft) O-NO 67 0 min 14,7 C 19,3 C 0,0 km/h (0 Bft)
12.08.2021 21:05 21,0 C 19,5 C 19,1 C 20,3 C 19,0 C 0,0 C 67 % 75 % 1019,2 hPa 0,0 l/m 0,0 km/h (0 Bft) O-NO 67 0 min 14,6 C 19,0 C 0,0 km/h (0 Bft)
12.08.2021 21:10 20,8 C 19,5 C 19,1 C 20,2 C 18,9 C 0,0 C 68 % 76 % 1019,2 hPa 0,0 l/m 0,0 km/h (0 Bft) O-NO 67 0 min 14,7 C 18,9 C 0,0 km/h (0 Bft)
12.08.2021 21:15 20,5 C 19,5 C 18,9 C 19,9 C 18,7 C 0,0 C 68 % 77 % 1019,2 hPa 0,0 l/m 0,0 km/h (0 Bft) O-NO 67 0 min 14,4 C 18,7 C 0,0 km/h (0 Bft)
12.08.2021 21:20 20,4 C 19,5 C 18,8 C 19,8 C 18,5 C 0,0 C 69 % 78 % 1019,2 hPa 0,0 l/m 0,0 km/h (0 Bft) O-NO 67 0 min 14,5 C 18,5 C 0,0 km/h (0 Bft)
12.08.2021 21:25 20,1 C 19,5 C 18,6 C 19,5 C 18,2 C 0,0 C 70 % 78 % 1019,2 hPa 0,0 l/m 0,0 km/h (0 Bft) O-NO 67 0 min 14,5 C 18,2 C 0,0 km/h (0 Bft)
12.08.2021 21:30 20,0 C 19,5 C 18,5 C 19,4 C 18,1 C 0,0 C 71 % 79 % 1019,2 hPa 0,0 l/m 0,0 km/h (0 Bft) O-NO 67 0 min 14,6 C 18,1 C 0,0 km/h (0 Bft)
12.08.2021 21:35 19,7 C 19,5 C 18,4 C 19,1 C 17,9 C 0,0 C 72 % 80 % 1019,2 hPa 0,0 l/m 0,0 km/h (0 Bft) O-NO 67 0 min 14,5 C 17,9 C 0,0 km/h (0 Bft)
12.08.2021 21:40 19,7 C 19,6 C 18,3 C 19,0 C 17,7 C 0,0 C 72 % 80 % 1019,2 hPa 0,0 l/m 0,0 km/h (0 Bft) O-NO 67 0 min 14,5 C 17,7 C 0,0 km/h (0 Bft)
12.08.2021 21:45 19,5 C 19,6 C 18,2 C 18,9 C 17,6 C 0,0 C 72 % 80 % 1019,2 hPa 0,0 l/m 0,0 km/h (0 Bft) O-NO 67 0 min 14,3 C 17,6 C 0,0 km/h (0 Bft)
12.08.2021 21:50 19,3 C 19,6 C 18,0 C 18,7 C 17,4 C 0,0 C 72 % 80 % 1019,2 hPa 0,0 l/m 0,0 km/h (0 Bft) O-NO 67 0 min 14,1 C 17,4 C 0,0 km/h (0 Bft)
12.08.2021 21:55 19,1 C 19,6 C 17,9 C 18,5 C 17,3 C 0,0 C 74 % 81 % 1019,5 hPa 0,0 l/m 0,0 km/h (0 Bft) O-NO 67 0 min 14,4 C 17,3 C 0,0 km/h (0 Bft)
12.08.2021 22:00 19,0 C 19,6 C 17,9 C 18,4 C 17,2 C 0,0 C 75 % 82 % 1019,5 hPa 0,0 l/m 0,0 km/h (0 Bft) O-NO 67 0 min 14,5 C 17,2 C 0,0 km/h (0 Bft)
12.08.2021 22:05 18,9 C 19,6 C 17,7 C 18,3 C 17,2 C 0,0 C 75 % 82 % 1019,5 hPa 0,0 l/m 0,0 km/h (0 Bft) O-NO 67 0 min 14,4 C 17,2 C 0,0 km/h (0 Bft)
12.08.2021 22:10 18,7 C 19,6 C 17,7 C 18,1 C 17,0 C 0,0 C 76 % 83 % 1019,5 hPa 0,0 l/m 0,0 km/h (0 Bft) O-NO 67 0 min 14,4 C 17,0 C 0,0 km/h (0 Bft)
12.08.2021 22:15 18,7 C 19,6 C 17,6 C 18,1 C 16,8 C 0,0 C 76 % 83 % 1019,4 hPa 0,0 l/m 0,0 km/h (0 Bft) O-NO 67 0 min 14,4 C 16,8 C 0,0 km/h (0 Bft)
12.08.2021 22:20 18,4 C 19,6 C 17,5 C 17,9 C 16,8 C 0,0 C 77 % 83 % 1019,4 hPa 0,0 l/m 0,0 km/h (0 Bft) O-NO 67 0 min 14,3 C 16,8 C 0,0 km/h (0 Bft)
12.08.2021 22:25 18,3 C 19,6 C 17,3 C 17,7 C 16,6 C 0,0 C 77 % 83 % 1019,4 hPa 0,0 l/m 0,0 km/h (0 Bft) O-NO 67 0 min 14,2 C 16,6 C 0,0 km/h (0 Bft)
12.08.2021 22:30 18,2 C 19,6 C 17,3 C 17,7 C 16,6 C 0,0 C 77 % 83 % 1019,4 hPa 0,0 l/m 0,0 km/h (0 Bft) O-NO 67 0 min 14,1 C 16,6 C 0,0 km/h (0 Bft)
12.08.2021 22:35 18,0 C 19,6 C 17,2 C 17,5 C 16,4 C 0,0 C 78 % 84 % 1019,4 hPa 0,0 l/m 0,0 km/h (0 Bft) O-NO 67 0 min 14,1 C 16,4 C 0,0 km/h (0 Bft)
12.08.2021 22:40 17,9 C 19,6 C 17,1 C 17,4 C 16,4 C 0,0 C 78 % 84 % 1019,4 hPa 0,0 l/m 0,0 km/h (0 Bft) O-NO 67 0 min 14,0 C 16,4 C 0,0 km/h (0 Bft)
12.08.2021 22:45 17,9 C 19,7 C 17,0 C 17,4 C 16,3 C 0,0 C 79 % 84 % 1019,4 hPa 0,0 l/m 0,0 km/h (0 Bft) O-NO 67 0 min 14,2 C 16,3 C 0,0 km/h (0 Bft)
12.08.2021 22:50 17,7 C 19,7 C 16,9 C 17,2 C 16,1 C 0,0 C 79 % 85 % 1019,4 hPa 0,0 l/m 0,0 km/h (0 Bft) O-NO 67 0 min 14,0 C 16,1 C 0,0 km/h (0 Bft)
12.08.2021 22:55 17,6 C 19,7 C 16,8 C 17,1 C 16,1 C 0,0 C 80 % 85 % 1019,8 hPa 0,0 l/m 0,0 km/h (0 Bft) O-NO 67 0 min 14,1 C 16,1 C 0,0 km/h (0 Bft)
12.08.2021 23:00 17,5 C 19,7 C 16,7 C 17,0 C 16,1 C 0,0 C 80 % 86 % 1019,8 hPa 0,0 l/m 0,0 km/h (0 Bft) O-NO 67 0 min 14,0 C 16,1 C 0,0 km/h (0 Bft)
12.08.2021 23:05 17,4 C 19,7 C 16,7 C 16,9 C 16,0 C 0,0 C 80 % 86 % 1019,8 hPa 0,0 l/m 0,0 km/h (0 Bft) O-NO 67 0 min 13,9 C 16,0 C 0,0 km/h (0 Bft)
12.08.2021 23:10 17,3 C 19,7 C 16,7 C 16,9 C 16,0 C 0,0 C 80 % 86 % 1019,8 hPa 0,0 l/m 0,0 km/h (0 Bft) O-NO 67 0 min 13,8 C 16,0 C 0,0 km/h (0 Bft)
12.08.2021 23:15 17,3 C 19,7 C 16,7 C 16,9 C 16,1 C 0,0 C 80 % 86 % 1019,7 hPa 0,0 l/m 0,0 km/h (0 Bft) O-NO 67 0 min 13,8 C 16,1 C 0,0 km/h (0 Bft)
12.08.2021 23:20 17,2 C 19,7 C 16,7 C 16,8 C 16,1 C 0,0 C 81 % 86 % 1019,7 hPa 0,0 l/m 0,0 km/h (0 Bft) O-NO 67 0 min 13,9 C 16,1 C 0,0 km/h (0 Bft)
12.08.2021 23:25 17,2 C 19,7 C 16,7 C 16,9 C 16,3 C 0,0 C 81 % 86 % 1019,7 hPa 0,0 l/m 0,0 km/h (0 Bft) O-NO 67 0 min 13,9 C 16,3 C 0,0 km/h (0 Bft)
12.08.2021 23:30 17,1 C 19,7 C 16,7 C 16,8 C 16,3 C 0,0 C 81 % 87 % 1019,7 hPa 0,0 l/m 0,0 km/h (0 Bft) O-NO 67 0 min 13,8 C 16,3 C 0,0 km/h (0 Bft)
12.08.2021 23:35 17,1 C 19,7 C 16,7 C 16,8 C 16,3 C 0,0 C 82 % 86 % 1019,8 hPa 0,0 l/m 0,0 km/h (0 Bft) O-NO 67 0 min 14,0 C 16,3 C 0,0 km/h (0 Bft)
12.08.2021 23:40 17,0 C 19,7 C 16,7 C 16,8 C 16,3 C 0,0 C 82 % 87 % 1019,8 hPa 0,0 l/m 0,0 km/h (0 Bft) O-NO 67 0 min 13,9 C 16,3 C 0,0 km/h (0 Bft)
12.08.2021 23:45 17,1 C 19,7 C 16,7 C 16,8 C 16,3 C 0,0 C 82 % 87 % 1019,8 hPa 0,0 l/m 0,0 km/h (0 Bft) O-NO 67 0 min 14,0 C 16,3 C 0,0 km/h (0 Bft)
12.08.2021 23:50 17,0 C 19,7 C 16,7 C 16,8 C 16,3 C 0,0 C 82 % 87 % 1019,8 hPa 0,0 l/m 0,0 km/h (0 Bft) O-NO 67 0 min 13,9 C 16,3 C 0,0 km/h (0 Bft)
12.08.2021 23:55 17,0 C 19,7 C 16,6 C 16,7 C 16,2 C 0,0 C 82 % 87 % 1019,4 hPa 0,0 l/m 0,0 km/h (0 Bft) O-NO 67 0 min 13,9 C 16,2 C 0,0 km/h (0 Bft)
_ Min-Zeit 06:25 10:05 06:10 06:20 06:20 00:00 14:45 15:20 19:15 - 00:00 - - - 06:25 06:20 00:00
Minimum _ 9,8 C 17,5 C 10,3 C 9,6 C 9,1 C 0,0 C 44 % 49 % 1019,1 hPa - 0,0 km/h (0 Bft) - - - 7,9 C 9,1 C 0,0 km/h (0 Bft)
_ Max-Zeit 14:00 22:45 16:35 15:35 15:35 08:45 05:45 05:40 08:55 00:00 10:45 - - 07:15 09:15 15:35 16:40
Maximum _ 27,1 C 19,7 C 25,1 C 33,6 C 33,6 C 12,8 C 88 % 92 % 1022,0 hPa 0,0 l/m 2,7 km/h
O (1 Bft)
- - 5 min 16,1 C 33,6 C 7,6 km/h
N-NW (2 Bft)
Durchschnitt _ 19,0 C 18,5 C 17,8 C 21,3 C 20,9 C 2,5 C 70 % 76 % 1020,7 hPa #0,0 l/m 0,3 km/h (0 Bft) W - #7:10 h 12,7 C 20,9 C 0,5 km/h (0 Bft)
2021 www.wetterstation-wechselburg.de